This demonstration page uses our WeatherBlox Daily Observations layout. Learn more.

Left ArrowRight Arrow

Hourly Observations for June 10, 2017

Temp ( °F °C ) Dew Point ( °F °C ) Humidity (%) Winds ( mph kmh ) Pressure ( in mb ) Visibility ( mi km ) Precip ( " mm )
12:15 am 00:15 Clear 74 23.2 62 16.4 66 66 S 15 24 29.59 1002 10 16.0934 0 0
12:35 am 00:35 Clear 73 23 62 16.6 67 67 S 18 30 29.59 1002 10 16.0934 0 0
12:55 am 00:55 Clear 73 22.7 62 16.8 69 69 S 21 33 29.56 1001 10 16.0934 0 0
1:15 am 01:15 Clear 73 22.5 62 16.8 70 70 S 21 33 29.59 1002 10 16.0934 0 0
1:35 am 01:35 Clear 72 22.2 62 16.8 72 72 S 18 30 29.56 1001 10 16.0934 0 0
1:55 am 01:55 Clear 72 22 62 16.7 72 72 S 21 33 29.56 1001 10 16.0934 0 0
2:15 am 02:15 Clear 71 21.6 62 16.6 73 73 S 17 28 29.56 1001 10 16.0934 0 0
2:35 am 02:35 Clear 71 21.6 62 16.5 73 73 S 20 31 29.56 1001 10 16.0934 0 0
2:55 am 02:55 Clear 71 21.5 62 16.6 74 74 S 20 31 29.53 1000 10 16.0934 0 0
3:15 am 03:15 Clear 70 21.2 62 16.6 75 75 S 17 28 29.53 1000 10 16.0934 0 0
3:35 am 03:35 Clear 70 20.9 62 16.6 77 77 S 16 26 29.53 1000 10 16.0934 0 0
3:55 am 03:55 Clear 69 20.7 62 16.8 78 78 S 16 26 29.53 1000 10 16.0934 0 0
4:15 am 04:15 Clear 69 20.5 62 16.8 79 79 S 16 26 29.53 1000 10 16.0934 0 0
4:35 am 04:35 Clear 68 20.2 63 17 82 82 S 13 20 29.53 1000 10 16.0934 0 0
4:55 am 04:55 Clear 68 20.1 63 17.1 83 83 S 14 22 29.53 1000 10 16.0934 0 0
5:15 am 05:15 Clear 68 19.9 63 17.3 85 85 S 13 20 29.53 1000 10 16.0934 0 0
5:35 am 05:35 Clear 67 19.7 64 17.5 87 87 S 15 24 29.53 1000 10 16.0934 0 0
5:55 am 05:55 Partly Cloudy 67 19.6 64 17.5 88 88 S 15 24 29.53 1000 10 16.0934 0 0
6:15 am 06:15 Partly Cloudy 67 19.5 64 17.5 88 88 S 16 26 29.53 1000 10 16.0934 0 0
6:35 am 06:35 Cloudy 67 19.7 64 17.7 88 88 S 20 31 29.53 1000 10 16.0934 0 0
6:55 am 06:55 Cloudy 68 20 64 17.8 87 87 S 22 35 29.53 1000 10 16.0934 0 0
7:15 am 07:15 Cloudy 68 20.1 64 18 88 88 S 15 24 29.53 1000 10 16.0934 0 0
7:35 am 07:35 Mostly Cloudy 69 20.6 65 18.1 86 86 S 17 28 29.53 1000 10 16.0934 0 0
7:55 am 07:55 Partly Cloudy 71 21.4 65 18.4 83 83 S 18 30 29.53 1000 10 16.0934 0 0
8:15 am 08:15 Partly Cloudy 71 21.9 65 18.5 81 81 S 18 30 29.53 1000 10 16.0934 0 0
8:35 am 08:35 Partly Cloudy 73 22.6 65 18.5 78 78 S 22 35 29.53 1000 10 16.0934 0 0
8:55 am 08:55 Partly Cloudy 74 23.2 65 18.5 75 75 S 25 41 29.5 999 10 16.0934 0 0
9:15 am 09:15 Sunny 75 24 65 18.6 72 72 S 22 35 29.5 999 10 16.0934 0 0
9:35 am 09:35 Sunny 76 24.6 65 18.6 69 69 SSW 24 39 29.5 999 10 16.0934 0 0
9:55 am 09:55 Sunny 78 25.7 65 18.6 65 65 SSW 20 31 29.5 999 10 16.0934 0 0
10:15 am 10:15 Partly Cloudy 79 26.1 65 18.6 63 63 SSW 22 35 29.5 999 10 16.0934 0 0
10:35 am 10:35 Partly Cloudy 80 26.6 65 18.6 62 62 SSW 21 33 29.5 999 10 16.0934 0 0
10:55 am 10:55 Partly Cloudy 81 27.4 66 18.8 59 59 SSW 16 26 29.5 999 10 16.0934 0 0
11:15 am 11:15 Partly Cloudy 83 28.1 66 18.9 57 57 SSW 16 26 29.5 999 10 16.0934 0 0
11:35 am 11:35 Partly Cloudy 83 28.5 65 18.5 55 55 SSW 14 22 29.5 999 10 16.0934 0 0
11:55 am 11:55 Sunny 84 29.1 65 18.5 53 53 SSW 12 19 29.5 999 10 16.0934 0 0
12:15 pm 12:15 Sunny 85 29.2 65 18.6 53 53 S 15 24 29.5 999 10 16.0934 0 0
12:35 pm 12:35 Sunny 86 30.1 65 18.4 50 50 SSW 12 19 29.5 999 10 16.0934 0 0
12:55 pm 12:55 Sunny 86 30.1 65 18.6 50 50 S 12 19 29.5 999 10 16.0934 0 0
1:15 pm 13:15 Sunny 88 31 65 18.3 47 47 S 14 22 29.47 998 10 16.0934 0 0
1:35 pm 13:35 Sunny 88 31.1 65 18.4 47 47 SSW 12 19 29.44 997 10 16.0934 0 0
1:55 pm 13:55 Sunny 89 31.6 64 17.9 44 44 S 10 17 29.47 998 10 16.0934 0 0
2:15 pm 14:15 Sunny 90 32 65 18.5 45 45 S 13 20 29.44 997 10 16.0934 0 0
2:35 pm 14:35 Sunny 90 32.3 64 17.9 42 42 S 9 15 29.44 997 10 16.0934 0 0
2:55 pm 14:55 Sunny 90 32.3 64 18 43 43 SSW 8 13 29.44 997 10 16.0934 0 0
3:15 pm 15:15 Sunny 91 32.8 63 17 39 39 S 10 17 29.44 997 10 16.0934 0 0
3:35 pm 15:35 Sunny 91 32.9 62 16.7 38 38 S 12 19 29.44 997 10 16.0934 0 0
3:55 pm 15:55 Sunny 92 33.6 64 17.7 39 39 SSE 13 20 29.44 997 10 16.0934 0 0
4:15 pm 16:15 Sunny 92 33.4 63 17.1 38 38 SSE 13 20 29.44 997 10 16.0934 0 0
4:35 pm 16:35 Partly Cloudy 93 33.9 65 18.1 39 39 SSE 17 28 29.44 997 10 16.0934 0 0
4:55 pm 16:55 Partly Cloudy 93 33.7 65 18.3 40 40 S 12 19 29.44 997 10 16.0934 0 0
5:15 pm 17:15 Sunny 92 33.5 64 17.9 39 39 SSE 16 26 29.41 996 10 16.0934 0 0
5:35 pm 17:35 Sunny 92 33.5 65 18.3 40 40 SSE 14 22 29.41 996 10 16.0934 0 0
5:55 pm 17:55 Sunny 92 33.6 65 18.5 41 41 SSE 16 26 29.41 996 10 16.0934 0 0
6:15 pm 18:15 Sunny 92 33.4 65 18.2 40 40 SSE 15 24 29.41 996 10 16.0934 0 0
6:35 pm 18:35 Sunny 92 33.2 65 18.3 41 41 S 18 30 29.41 996 10 16.0934 0 0
6:55 pm 18:55 Sunny 91 33 65 18.6 42 42 S 17 28 29.41 996 10 16.0934 0 0
7:15 pm 19:15 Sunny 91 32.7 65 18.5 43 43 SSE 17 28 29.41 996 10 16.0934 0 0
7:35 pm 19:35 Sunny 90 32.4 65 18.1 43 43 SSE 21 33 29.41 996 10 16.0934 0 0
7:55 pm 19:55 Sunny 90 32 65 18.2 44 44 SSE 22 35 29.41 996 10 16.0934 0 0
8:15 pm 20:15 Sunny 89 31.5 64 18 45 45 SSE 14 22 29.41 996 10 16.0934 0 0
8:35 pm 20:35 Sunny 87 30.7 66 18.9 49 49 SSE 14 22 29.41 996 10 16.0934 0 0
8:55 pm 20:55 Sunny 86 29.8 66 19 52 52 SE 13 20 29.44 997 10 16.0934 0 0
9:15 pm 21:15 Clear 84 29.1 66 19 54 54 SE 13 20 29.44 997 10 16.0934 0 0
9:35 pm 21:35 Clear 84 28.7 66 19 56 56 SE 15 24 29.44 997 10 16.0934 0 0
9:55 pm 21:55 Clear 83 28.4 66 19 57 57 SSE 17 28 29.44 997 10 16.0934 0 0
10:15 pm 22:15 Clear 82 28 66 19.1 58 58 SSE 18 30 29.47 998 10 16.0934 0 0
10:35 pm 22:35 Clear 82 27.9 67 19.3 60 60 SSE 15 24 29.47 998 10 16.0934 0 0
10:55 pm 22:55 Clear 82 27.5 67 19.2 61 61 SSE 18 30 29.47 998 10 16.0934 0 0
11:15 pm 23:15 Clear 82 27.5 66 19.1 60 60 SSE 21 33 29.47 998 10 16.0934 0 0
11:35 pm 23:35 Clear 81 27.3 66 18.8 60 60 SSE 23 37 29.47 998 10 16.0934 0 0
11:55 pm 23:55 Clear 81 27 66 18.7 60 60 SSE 17 28 29.47 998 10 16.0934 0 0

Powered by AerisWeather